"Pseudo-MPEC" for P10LpbT

Created 2019 Jan 27 1:18:29 UT using Find_Orb

Click here for an explanation of pseudo-MPECs

 
 Astrometry: 
     P10LpbT  C2019 01 11YvjAstrometry;[ik.wE=]!vNGredacted;B`jn?^imKoc?0vkQCF51
     P10LpbT  C2019 01 11@'WWclick]-+^*!EtJdY9XY?'B8herekr.Ec`hyb[W@%H[!C+fVxF51
     P10LpbT  C2019 01 11=%e0J]oF$]y$yZ5?R.yUVZVS?vc=tR5S=E#cLhfor/F/46(gD[vTF51
     P10LpbT  C2019 01 11b4)KRW$AeAfBvOoPqXexplanationPrA?.$,,_(`/4HCqNOORpnMF51
     P10LpbT ^C2019 01 12.34369107 26 53.130+45 07 07.20   ~1CJI 20.60GVNEOCP568
     P10LpbT ^C2019 01 12.34635507 26 49.834+45 06 22.12   ~1CJI 20.60GVNEOCP568
     P10LpbT ^C2019 01 12.34759807 26 48.292+45 06 01.06   ~1CJI 20.60GVNEOCP568

Station data:
(568) Mauna Kea  (N19.826116 W155.472200)  US/Hawaii.
(F51) Pan-STARRS 1, Haleakala  (N20.707235 W156.255910)  US/Hawaii.
   Observers N. Primak, A. Schultz, S. Watters, J. Thiel, T. Goggia. Measurer
   PS1 Science Consortium. 1.8-m Ritchey-Chrétien + CCD.

Orbital elements:  P10LpbT
   Perihelion 2018 Nov 14.215108 +/- 1.8 TT =  5:09:45 (JD 2458436.715108)
Epoch 2019 Jan 12.0 TT = JDT 2458495.5   Earth MOID: 0.0793   Me: 0.0429
M  45.87954944 +/- 5.1              (J2000 ecliptic)          AutoNEOCP
n   0.78046497 +/- 0.0626           Peri.   49.18414 +/- 0.7
a   1.16833423 +/- 0.0625           Node   295.30344 +/- 0.13
e   0.6573837 +/- 0.0293            Incl.   27.68399 +/- 1.7
P   1.26/461.25d           H 24.5   G  0.15   U 10.9  
q 0.40029031 +/- 0.0125    Q 1.93637815 +/- 0.134
From 7 observations 2019 Jan. 11-12 (21.1 hr); mean residual 0".39
Residuals in arcseconds: 
190111 F51  .07+  .10+    190111 F51  .34-  .40-    190112 568  .05-  .04-    
190111 F51  .50-  .55-    190112 568  .04+  .04+    
190111 F51  .76+  .85+    190112 568  .01+  .00     

Ephemerides (geocentric):
Date (UTC) HH   RA              Dec         delta   r     elong  mag " sig PA
---- -- -- --  -------------   -----------  ------ ------ -----  --- ---- ---
2019 01 27 01  06 09 05.209   +15 30 56.31  .29432 1.2370 144.9 23.5  641  24
2019 01 27 02  06 09 02.696   +15 29 11.69  .29493 1.2374 144.8 23.5  642  24
2019 01 27 03  06 09 00.201   +15 27 27.51  .29553 1.2379 144.8 23.5  642  24
2019 01 27 04  06 08 57.725   +15 25 43.78  .29614 1.2383 144.7 23.5  643  24
2019 01 27 05  06 08 55.266   +15 24 00.49  .29674 1.2387 144.7 23.6  644  24
2019 01 27 06  06 08 52.825   +15 22 17.63  .29735 1.2391 144.6 23.6  645  24
2019 01 27 07  06 08 50.401   +15 20 35.21  .29795 1.2395 144.6 23.6  646  24
2019 01 27 08  06 08 47.995   +15 18 53.23  .29856 1.2399 144.5 23.6  646  24
2019 01 27 09  06 08 45.607   +15 17 11.67  .29917 1.2403 144.4 23.6  647  24
2019 01 27 10  06 08 43.236   +15 15 30.55  .29977 1.2407 144.4 23.6  648  24
2019 01 27 11  06 08 40.882   +15 13 49.85  .30038 1.2411 144.3 23.6  649  23
2019 01 27 12  06 08 38.545   +15 12 09.57  .30099 1.2415 144.3 23.6  649  23
2019 01 27 13  06 08 36.226   +15 10 29.72  .30159 1.2419 144.2 23.6  650  23
2019 01 27 14  06 08 33.923   +15 08 50.29  .30220 1.2424 144.2 23.6  651  23
2019 01 27 15  06 08 31.638   +15 07 11.27  .30281 1.2428 144.1 23.6  652  23
2019 01 27 16  06 08 29.369   +15 05 32.67  .30342 1.2432 144.1 23.6  652  23
2019 01 27 17  06 08 27.117   +15 03 54.48  .30402 1.2436 144.0 23.6  653  23
2019 01 27 18  06 08 24.881   +15 02 16.70  .30463 1.2440 144.0 23.6  654  23
2019 01 27 19  06 08 22.663   +15 00 39.33  .30524 1.2444 143.9 23.6  655  23
2019 01 27 20  06 08 20.460   +14 59 02.37  .30585 1.2448 143.8 23.6  655  23
2019 01 27 21  06 08 18.274   +14 57 25.81  .30646 1.2452 143.8 23.7  656  23
2019 01 27 22  06 08 16.105   +14 55 49.65  .30707 1.2456 143.7 23.7  657  23
2019 01 27 23  06 08 13.951   +14 54 13.89  .30768 1.2460 143.7 23.7  657  23
2019 01 28 00  06 08 11.814   +14 52 38.53  .30829 1.2464 143.6 23.7  658  23
2019 01 28 01  06 08 09.693   +14 51 03.57  .30890 1.2468 143.6 23.7  659  23
2019 01 28 02  06 08 07.587   +14 49 29.00  .30951 1.2472 143.5 23.7  659  23
2019 01 28 03  06 08 05.498   +14 47 54.81  .31012 1.2476 143.5 23.7  660  23
2019 01 28 04  06 08 03.424   +14 46 21.02  .31073 1.2481 143.4 23.7  661  23
2019 01 28 05  06 08 01.366   +14 44 47.62  .31134 1.2485 143.4 23.7  662  23
2019 01 28 06  06 07 59.324   +14 43 14.60  .31195 1.2489 143.3 23.7  662  23
2019 01 28 07  06 07 57.297   +14 41 41.96  .31256 1.2493 143.2 23.7  663  23
2019 01 28 08  06 07 55.286   +14 40 09.70  .31317 1.2497 143.2 23.7  664  23
2019 01 28 09  06 07 53.291   +14 38 37.83  .31378 1.2501 143.1 23.7  664  23
2019 01 28 10  06 07 51.310   +14 37 06.33  .31439 1.2505 143.1 23.7  665  23
2019 01 28 11  06 07 49.345   +14 35 35.20  .31500 1.2509 143.0 23.7  666  23
2019 01 28 12  06 07 47.395   +14 34 04.45  .31562 1.2513 143.0 23.7  666  23
2019 01 28 13  06 07 45.460   +14 32 34.07  .31623 1.2517 142.9 23.7  667  23
2019 01 28 14  06 07 43.540   +14 31 04.05  .31684 1.2521 142.9 23.7  667  23
2019 01 28 15  06 07 41.635   +14 29 34.41  .31745 1.2525 142.8 23.8  668  23
2019 01 28 16  06 07 39.745   +14 28 05.13  .31806 1.2529 142.8 23.8  669  23
2019 01 28 17  06 07 37.870   +14 26 36.21  .31868 1.2533 142.7 23.8  669  23
2019 01 28 18  06 07 36.010   +14 25 07.65  .31929 1.2537 142.7 23.8  670  23
2019 01 28 19  06 07 34.164   +14 23 39.45  .31990 1.2541 142.6 23.8  671  23
2019 01 28 20  06 07 32.333   +14 22 11.62  .32052 1.2545 142.6 23.8  671  23
2019 01 28 21  06 07 30.516   +14 20 44.13  .32113 1.2549 142.5 23.8  672  23
2019 01 28 22  06 07 28.714   +14 19 17.00  .32175 1.2553 142.4 23.8  672  23
2019 01 28 23  06 07 26.926   +14 17 50.22  .32236 1.2557 142.4 23.8  673  23
2019 01 29 00  06 07 25.152   +14 16 23.80  .32297 1.2561 142.3 23.8  674  23